owner,sensor,date,latitude,longitude,sea_water_turbidity,qcFlag 
SCCF RECON,ioos:station:SCCF:16:1,2009-06-05T18:00:00Z,26.4345,-81.9647,6.06,1111122 
SCCF RECON,ioos:station:SCCF:16:1,2009-06-05T19:00:00Z,26.4345,-81.9647,6.8,1111122 
SCCF RECON,ioos:station:SCCF:16:1,2009-06-05T20:00:00Z,26.4345,-81.9647,7.01,1111122 
SCCF RECON,ioos:station:SCCF:16:1,2009-06-05T21:00:00Z,26.4345,-81.9647,7.26,1111122 
SCCF RECON,ioos:station:SCCF:16:1,2009-06-05T22:00:00Z,26.4345,-81.9647,7.83,1111122 
SCCF RECON,ioos:station:SCCF:16:1,2009-06-05T23:00:00Z,26.4345,-81.9647,7.74,1111122 
SCCF RECON,ioos:station:SCCF:16:1,2009-06-06T00:00:00Z,26.4345,-81.9647,6.81,1111122 
SCCF RECON,ioos:station:SCCF:16:1,2009-06-06T01:00:00Z,26.4345,-81.9647,6.57,1111122 
SCCF RECON,ioos:station:SCCF:16:1,2009-06-06T02:00:00Z,26.4345,-81.9647,7.37,1111122 
SCCF RECON,ioos:station:SCCF:16:1,2009-06-06T03:00:00Z,26.4345,-81.9647,8.87,1111122 
SCCF RECON,ioos:station:SCCF:16:1,2009-06-06T04:00:00Z,26.4345,-81.9647,9.58,1111122 
SCCF RECON,ioos:station:SCCF:16:1,2009-06-06T05:00:00Z,26.4345,-81.9647,9.87,1111122 
SCCF RECON,ioos:station:SCCF:16:1,2009-06-06T06:00:00Z,26.4345,-81.9647,7.61,1111122 
SCCF RECON,ioos:station:SCCF:16:1,2009-06-06T07:00:00Z,26.4345,-81.9647,7.68,1111122 
SCCF RECON,ioos:station:SCCF:16:1,2009-06-06T08:00:00Z,26.4345,-81.9647,9.18,1111122 
SCCF RECON,ioos:station:SCCF:16:1,2009-06-06T09:00:00Z,26.4345,-81.9647,10.01,1111122 
SCCF RECON,ioos:station:SCCF:16:1,2009-06-06T10:00:00Z,26.4345,-81.9647,10.31,1111122 
SCCF RECON,ioos:station:SCCF:16:1,2009-06-06T11:00:00Z,26.4345,-81.9647,11.38,1111122 
SCCF RECON,ioos:station:SCCF:16:1,2009-06-06T12:00:00Z,26.4345,-81.9647,10.15,1111122 
SCCF RECON,ioos:station:SCCF:16:1,2009-06-06T13:00:00Z,26.4345,-81.9647,11.78,1111122 
SCCF RECON,ioos:station:SCCF:16:1,2009-06-06T14:00:00Z,26.4345,-81.9647,15.0,1111122 
SCCF RECON,ioos:station:SCCF:16:1,2009-06-06T15:00:00Z,26.4345,-81.9647,15.8,1111122 
SCCF RECON,ioos:station:SCCF:16:1,2009-06-06T16:00:00Z,26.4345,-81.9647,10.84,1111122 
SCCF RECON,ioos:station:SCCF:16:1,2009-06-06T17:00:00Z,26.4345,-81.9647,11.26,1111122 
SCCF RECON,ioos:station:SCCF:16:1,2009-06-06T18:00:00Z,26.4345,-81.9647,13.0,1111122 
SCCF RECON,ioos:station:SCCF:16:1,2009-06-06T19:00:00Z,26.4345,-81.9647,10.73,1111122 
SCCF RECON,ioos:station:SCCF:16:1,2009-06-06T20:00:00Z,26.4345,-81.9647,13.09,1111122 
SCCF RECON,ioos:station:SCCF:16:1,2009-06-06T21:00:00Z,26.4345,-81.9647,14.45,1111122 
SCCF RECON,ioos:station:SCCF:16:1,2009-06-06T22:00:00Z,26.4345,-81.9647,10.3,1111122 
SCCF RECON,ioos:station:SCCF:16:1,2009-06-06T23:00:00Z,26.4345,-81.9647,9.0,1111122 
SCCF RECON,ioos:station:SCCF:16:1,2009-06-07T00:00:00Z,26.4345,-81.9647,8.43,1111122 
SCCF RECON,ioos:station:SCCF:16:1,2009-06-07T01:00:00Z,26.4345,-81.9647,6.78,1111122 
SCCF RECON,ioos:station:SCCF:16:1,2009-06-07T02:00:00Z,26.4345,-81.9647,7.46,1111122 
SCCF RECON,ioos:station:SCCF:16:1,2009-06-07T03:00:00Z,26.4345,-81.9647,6.1,1111122 
SCCF RECON,ioos:station:SCCF:16:1,2009-06-07T04:00:00Z,26.4345,-81.9647,8.22,1111122 
SCCF RECON,ioos:station:SCCF:16:1,2009-06-07T05:00:00Z,26.4345,-81.9647,9.94,1111122 
SCCF RECON,ioos:station:SCCF:16:1,2009-06-07T06:00:00Z,26.4345,-81.9647,10.97,1111122 
SCCF RECON,ioos:station:SCCF:16:1,2009-06-07T07:00:00Z,26.4345,-81.9647,10.01,1111122 
SCCF RECON,ioos:station:SCCF:16:1,2009-06-07T08:00:00Z,26.4345,-81.9647,10.64,1111122 
SCCF RECON,ioos:station:SCCF:16:1,2009-06-07T09:00:00Z,26.4345,-81.9647,13.33,1111122 
SCCF RECON,ioos:station:SCCF:16:1,2009-06-07T10:00:00Z,26.4345,-81.9647,11.55,1111122 
SCCF RECON,ioos:station:SCCF:16:1,2009-06-07T11:00:00Z,26.4345,-81.9647,11.28,1111122 
SCCF RECON,ioos:station:SCCF:16:1,2009-06-07T12:00:00Z,26.4345,-81.9647,11.97,1111122 
SCCF RECON,ioos:station:SCCF:16:1,2009-06-07T13:00:00Z,26.4345,-81.9647,8.26,1111122 
SCCF RECON,ioos:station:SCCF:16:1,2009-06-07T14:00:00Z,26.4345,-81.9647,9.25,1111122 
SCCF RECON,ioos:station:SCCF:16:1,2009-06-07T15:00:00Z,26.4345,-81.9647,12.8,1111122 
SCCF RECON,ioos:station:SCCF:16:1,2009-06-07T16:00:00Z,26.4345,-81.9647,23.69,1111122 
SCCF RECON,ioos:station:SCCF:16:1,2009-06-07T17:00:00Z,26.4345,-81.9647,12.78,1111122 
SCCF RECON,ioos:station:SCCF:16:1,2009-06-07T18:00:00Z,26.4345,-81.9647,20.35,1111122 
SCCF RECON,ioos:station:SCCF:16:1,2009-06-07T19:00:00Z,26.4345,-81.9647,19.64,1111122 
SCCF RECON,ioos:station:SCCF:16:1,2009-06-07T20:00:00Z,26.4345,-81.9647,17.26,1111122 
SCCF RECON,ioos:station:SCCF:16:1,2009-06-07T21:00:00Z,26.4345,-81.9647,14.09,1111122 
SCCF RECON,ioos:station:SCCF:16:1,2009-06-07T22:00:00Z,26.4345,-81.9647,17.88,1111122 
SCCF RECON,ioos:station:SCCF:16:1,2009-06-07T23:00:00Z,26.4345,-81.9647,10.38,1111122 
SCCF RECON,ioos:station:SCCF:16:1,2009-06-08T00:00:00Z,26.4345,-81.9647,8.71,1111122 
SCCF RECON,ioos:station:SCCF:16:1,2009-06-08T01:00:00Z,26.4345,-81.9647,8.08,1111122 
SCCF RECON,ioos:station:SCCF:16:1,2009-06-08T02:00:00Z,26.4345,-81.9647,5.96,1111122 
SCCF RECON,ioos:station:SCCF:16:1,2009-06-08T03:00:00Z,26.4345,-81.9647,5.44,1111122 
SCCF RECON,ioos:station:SCCF:16:1,2009-06-08T04:00:00Z,26.4345,-81.9647,6.92,1111122 
SCCF RECON,ioos:station:SCCF:16:1,2009-06-08T05:00:00Z,26.4345,-81.9647,8.17,1111122 
SCCF RECON,ioos:station:SCCF:16:1,2009-06-08T06:00:00Z,26.4345,-81.9647,8.82,1111122 
SCCF RECON,ioos:station:SCCF:16:1,2009-06-08T07:00:00Z,26.4345,-81.9647,8.76,1111122 
SCCF RECON,ioos:station:SCCF:16:1,2009-06-08T08:00:00Z,26.4345,-81.9647,8.81,1111122 
SCCF RECON,ioos:station:SCCF:16:1,2009-06-08T09:00:00Z,26.4345,-81.9647,8.65,1111122 
SCCF RECON,ioos:station:SCCF:16:1,2009-06-08T10:00:00Z,26.4345,-81.9647,8.55,1111122 
SCCF RECON,ioos:station:SCCF:16:1,2009-06-08T11:00:00Z,26.4345,-81.9647,8.58,1111122 
SCCF RECON,ioos:station:SCCF:16:1,2009-06-08T12:00:00Z,26.4345,-81.9647,9.4,1111122 
SCCF RECON,ioos:station:SCCF:16:1,2009-06-08T13:00:00Z,26.4345,-81.9647,9.71,1111122 
SCCF RECON,ioos:station:SCCF:16:1,2009-06-08T14:00:00Z,26.4345,-81.9647,9.34,1111122 
SCCF RECON,ioos:station:SCCF:16:1,2009-06-08T15:00:00Z,26.4345,-81.9647,10.26,1111122 
SCCF RECON,ioos:station:SCCF:16:1,2009-06-08T16:00:00Z,26.4345,-81.9647,10.06,1111122 
SCCF RECON,ioos:station:SCCF:16:1,2009-06-08T17:00:00Z,26.4345,-81.9647,7.42,1111122 
SCCF RECON,ioos:station:SCCF:16:1,2009-06-08T18:00:00Z,26.4345,-81.9647,7.22,1111122 
SCCF RECON,ioos:station:SCCF:16:1,2009-06-08T19:00:00Z,26.4345,-81.9647,6.6,1111122 
SCCF RECON,ioos:station:SCCF:16:1,2009-06-08T20:00:00Z,26.4345,-81.9647,7.15,1111122 
SCCF RECON,ioos:station:SCCF:16:1,2009-06-08T21:00:00Z,26.4345,-81.9647,7.99,1111122 
SCCF RECON,ioos:station:SCCF:16:1,2009-06-08T22:00:00Z,26.4345,-81.9647,8.05,1111122 
SCCF RECON,ioos:station:SCCF:16:1,2009-06-08T23:00:00Z,26.4345,-81.9647,8.96,1111122 
SCCF RECON,ioos:station:SCCF:16:1,2009-06-09T00:00:00Z,26.4345,-81.9647,8.32,1111122 
SCCF RECON,ioos:station:SCCF:16:1,2009-06-09T01:00:00Z,26.4345,-81.9647,7.49,1111122 
SCCF RECON,ioos:station:SCCF:16:1,2009-06-09T02:00:00Z,26.4345,-81.9647,6.13,1111122 
SCCF RECON,ioos:station:SCCF:16:1,2009-06-09T03:00:00Z,26.4345,-81.9647,6.7,1111122 
SCCF RECON,ioos:station:SCCF:16:1,2009-06-09T04:00:00Z,26.4345,-81.9647,7.13,1111122 
SCCF RECON,ioos:station:SCCF:16:1,2009-06-09T05:00:00Z,26.4345,-81.9647,7.39,1111122 
SCCF RECON,ioos:station:SCCF:16:1,2009-06-09T06:00:00Z,26.4345,-81.9647,8.14,1111122 
SCCF RECON,ioos:station:SCCF:16:1,2009-06-09T07:00:00Z,26.4345,-81.9647,9.03,1111122 
SCCF RECON,ioos:station:SCCF:16:1,2009-06-09T08:00:00Z,26.4345,-81.9647,9.65,1111122 
SCCF RECON,ioos:station:SCCF:16:1,2009-06-09T09:00:00Z,26.4345,-81.9647,9.52,1111122 
SCCF RECON,ioos:station:SCCF:16:1,2009-06-09T10:00:00Z,26.4345,-81.9647,8.49,1111122 
SCCF RECON,ioos:station:SCCF:16:1,2009-06-09T11:00:00Z,26.4345,-81.9647,6.8,1111122 
SCCF RECON,ioos:station:SCCF:16:1,2009-06-09T12:00:00Z,26.4345,-81.9647,6.7,1111122 
SCCF RECON,ioos:station:SCCF:16:1,2009-06-09T13:00:00Z,26.4345,-81.9647,6.72,1111122 
SCCF RECON,ioos:station:SCCF:16:1,2009-06-09T15:00:00Z,26.4345,-81.9647,7.97,1111122 
SCCF RECON,ioos:station:SCCF:16:1,2009-06-09T16:00:00Z,26.4345,-81.9647,7.77,1111122 
SCCF RECON,ioos:station:SCCF:16:1,2009-06-09T17:00:00Z,26.4345,-81.9647,7.37,1111122 
SCCF RECON,ioos:station:SCCF:16:1,2009-06-09T18:00:00Z,26.4345,-81.9647,6.59,1111122 
SCCF RECON,ioos:station:SCCF:16:1,2009-06-09T19:00:00Z,26.4345,-81.9647,6.72,1111122 
SCCF RECON,ioos:station:SCCF:16:1,2009-06-09T20:00:00Z,26.4345,-81.9647,6.82,1111122 
SCCF RECON,ioos:station:SCCF:16:1,2009-06-09T21:00:00Z,26.4345,-81.9647,7.91,1111122 
SCCF RECON,ioos:station:SCCF:16:1,2009-06-09T22:00:00Z,26.4345,-81.9647,7.41,1111122 
SCCF RECON,ioos:station:SCCF:16:1,2009-06-09T23:00:00Z,26.4345,-81.9647,8.48,1111122 
SCCF RECON,ioos:station:SCCF:16:1,2009-06-10T00:00:00Z,26.4345,-81.9647,8.2,1111122 
SCCF RECON,ioos:station:SCCF:16:1,2009-06-10T01:00:00Z,26.4345,-81.9647,7.74,1111122 
SCCF RECON,ioos:station:SCCF:16:1,2009-06-10T02:00:00Z,26.4345,-81.9647,7.16,1111122 
SCCF RECON,ioos:station:SCCF:16:1,2009-06-10T03:00:00Z,26.4345,-81.9647,5.7,1111122 
SCCF RECON,ioos:station:SCCF:16:1,2009-06-10T04:00:00Z,26.4345,-81.9647,5.75,1111122 
SCCF RECON,ioos:station:SCCF:16:1,2009-06-10T05:00:00Z,26.4345,-81.9647,6.4,1111122 
SCCF RECON,ioos:station:SCCF:16:1,2009-06-10T06:00:00Z,26.4345,-81.9647,6.08,1111122 
SCCF RECON,ioos:station:SCCF:16:1,2009-06-10T07:00:00Z,26.4345,-81.9647,6.49,1111122 
SCCF RECON,ioos:station:SCCF:16:1,2009-06-10T08:00:00Z,26.4345,-81.9647,6.14,1111122 
SCCF RECON,ioos:station:SCCF:16:1,2009-06-10T09:00:00Z,26.4345,-81.9647,6.06,1111122 
SCCF RECON,ioos:station:SCCF:16:1,2009-06-10T10:00:00Z,26.4345,-81.9647,5.84,1111122 
SCCF RECON,ioos:station:SCCF:16:1,2009-06-10T11:00:00Z,26.4345,-81.9647,6.09,1111122 
SCCF RECON,ioos:station:SCCF:16:1,2009-06-10T12:00:00Z,26.4345,-81.9647,5.45,1111122 
SCCF RECON,ioos:station:SCCF:16:1,2009-06-10T13:00:00Z,26.4345,-81.9647,5.25,1111122 
SCCF RECON,ioos:station:SCCF:16:1,2009-06-10T14:00:00Z,26.4345,-81.9647,5.16,1111122 
SCCF RECON,ioos:station:SCCF:16:1,2009-06-10T15:00:00Z,26.4345,-81.9647,5.11,1111122 
SCCF RECON,ioos:station:SCCF:16:1,2009-06-10T16:00:00Z,26.4345,-81.9647,5.35,1111122 
SCCF RECON,ioos:station:SCCF:16:1,2009-06-10T17:00:00Z,26.4345,-81.9647,5.5,1111122 
SCCF RECON,ioos:station:SCCF:16:1,2009-06-10T18:00:00Z,26.4345,-81.9647,4.82,1111122 
SCCF RECON,ioos:station:SCCF:16:1,2009-06-10T19:00:00Z,26.4345,-81.9647,5.49,1111122 
SCCF RECON,ioos:station:SCCF:16:1,2009-06-10T20:00:00Z,26.4345,-81.9647,5.31,1111122 
SCCF RECON,ioos:station:SCCF:16:1,2009-06-10T21:00:00Z,26.4345,-81.9647,6.13,1111122 
SCCF RECON,ioos:station:SCCF:16:1,2009-06-10T22:00:00Z,26.4345,-81.9647,6.48,1111122 
SCCF RECON,ioos:station:SCCF:16:1,2009-06-10T23:00:00Z,26.4345,-81.9647,7.02,1111122 
SCCF RECON,ioos:station:SCCF:16:1,2009-06-11T00:00:00Z,26.4345,-81.9647,7.56,1111122 
SCCF RECON,ioos:station:SCCF:16:1,2009-06-11T01:00:00Z,26.4345,-81.9647,7.41,1111122 
SCCF RECON,ioos:station:SCCF:16:1,2009-06-11T02:00:00Z,26.4345,-81.9647,7.16,1111122 
SCCF RECON,ioos:station:SCCF:16:1,2009-06-11T03:00:00Z,26.4345,-81.9647,6.29,1111122 
SCCF RECON,ioos:station:SCCF:16:1,2009-06-11T04:00:00Z,26.4345,-81.9647,5.87,1111122 
SCCF RECON,ioos:station:SCCF:16:1,2009-06-11T05:00:00Z,26.4345,-81.9647,6.42,1111122 
SCCF RECON,ioos:station:SCCF:16:1,2009-06-11T06:00:00Z,26.4345,-81.9647,6.7,1111122 
SCCF RECON,ioos:station:SCCF:16:1,2009-06-11T07:00:00Z,26.4345,-81.9647,5.95,1111122 
SCCF RECON,ioos:station:SCCF:16:1,2009-06-11T08:00:00Z,26.4345,-81.9647,5.6,1111122 
SCCF RECON,ioos:station:SCCF:16:1,2009-06-11T09:00:00Z,26.4345,-81.9647,5.4,1111122 
SCCF RECON,ioos:station:SCCF:16:1,2009-06-11T10:00:00Z,26.4345,-81.9647,5.47,1111122 
SCCF RECON,ioos:station:SCCF:16:1,2009-06-11T11:00:00Z,26.4345,-81.9647,5.33,1111122 
SCCF RECON,ioos:station:SCCF:16:1,2009-06-11T12:00:00Z,26.4345,-81.9647,5.73,1111122 
SCCF RECON,ioos:station:SCCF:16:1,2009-06-11T13:00:00Z,26.4345,-81.9647,4.92,1111122 
SCCF RECON,ioos:station:SCCF:16:1,2009-06-11T14:00:00Z,26.4345,-81.9647,4.71,1111122 
SCCF RECON,ioos:station:SCCF:16:1,2009-06-11T15:00:00Z,26.4345,-81.9647,4.81,1111122 
SCCF RECON,ioos:station:SCCF:16:1,2009-06-11T16:00:00Z,26.4345,-81.9647,4.79,1111122 
SCCF RECON,ioos:station:SCCF:16:1,2009-06-11T17:00:00Z,26.4345,-81.9647,4.93,1111122 
SCCF RECON,ioos:station:SCCF:16:1,2009-06-11T18:00:00Z,26.4345,-81.9647,9.45,1111122 
SCCF RECON,ioos:station:SCCF:16:1,2009-06-11T19:00:00Z,26.4345,-81.9647,4.57,1111122 
SCCF RECON,ioos:station:SCCF:16:1,2009-06-11T20:00:00Z,26.4345,-81.9647,4.72,1111122 
SCCF RECON,ioos:station:SCCF:16:1,2009-06-11T21:00:00Z,26.4345,-81.9647,4.95,1111122 
SCCF RECON,ioos:station:SCCF:16:1,2009-06-11T22:00:00Z,26.4345,-81.9647,5.68,1111122 
SCCF RECON,ioos:station:SCCF:16:1,2009-06-11T23:00:00Z,26.4345,-81.9647,6.31,1111122 
SCCF RECON,ioos:station:SCCF:16:1,2009-06-12T00:00:00Z,26.4345,-81.9647,7.04,1111122 
SCCF RECON,ioos:station:SCCF:16:1,2009-06-12T01:00:00Z,26.4345,-81.9647,6.74,1111122 
SCCF RECON,ioos:station:SCCF:16:1,2009-06-12T02:00:00Z,26.4345,-81.9647,6.51,1111122 
SCCF RECON,ioos:station:SCCF:16:1,2009-06-12T03:00:00Z,26.4345,-81.9647,6.21,1111122 
SCCF RECON,ioos:station:SCCF:16:1,2009-06-12T04:00:00Z,26.4345,-81.9647,6.76,1111122 
SCCF RECON,ioos:station:SCCF:16:1,2009-06-12T05:00:00Z,26.4345,-81.9647,5.44,1111122 
SCCF RECON,ioos:station:SCCF:16:1,2009-06-12T06:00:00Z,26.4345,-81.9647,6.17,1111122 
SCCF RECON,ioos:station:SCCF:16:1,2009-06-12T07:00:00Z,26.4345,-81.9647,5.98,1111122 
SCCF RECON,ioos:station:SCCF:16:1,2009-06-12T08:00:00Z,26.4345,-81.9647,5.68,1111122 
SCCF RECON,ioos:station:SCCF:16:1,2009-06-12T09:00:00Z,26.4345,-81.9647,5.43,1111122 
SCCF RECON,ioos:station:SCCF:16:1,2009-06-12T10:00:00Z,26.4345,-81.9647,5.41,1111122 
SCCF RECON,ioos:station:SCCF:16:1,2009-06-12T11:00:00Z,26.4345,-81.9647,5.49,1111122 
SCCF RECON,ioos:station:SCCF:16:1,2009-06-12T12:00:00Z,26.4345,-81.9647,5.44,1111122 
SCCF RECON,ioos:station:SCCF:16:1,2009-06-12T13:00:00Z,26.4345,-81.9647,5.45,1111122 
SCCF RECON,ioos:station:SCCF:16:1,2009-06-12T14:00:00Z,26.4345,-81.9647,5.24,1111122 
SCCF RECON,ioos:station:SCCF:16:1,2009-06-12T15:00:00Z,26.4345,-81.9647,5.13,1111122 
SCCF RECON,ioos:station:SCCF:16:1,2009-06-12T16:00:00Z,26.4345,-81.9647,4.75,1111122 
SCCF RECON,ioos:station:SCCF:16:1,2009-06-12T17:00:00Z,26.4345,-81.9647,4.76,1111122 
SCCF RECON,ioos:station:SCCF:16:1,2009-06-12T18:00:00Z,26.4345,-81.9647,4.81,1111122 
SCCF RECON,ioos:station:SCCF:16:1,2009-06-12T19:00:00Z,26.4345,-81.9647,4.68,1111122 
SCCF RECON,ioos:station:SCCF:16:1,2009-06-12T20:00:00Z,26.4345,-81.9647,5.39,1111122 
SCCF RECON,ioos:station:SCCF:16:1,2009-06-12T21:00:00Z,26.4345,-81.9647,5.15,1111122 
SCCF RECON,ioos:station:SCCF:16:1,2009-06-12T22:00:00Z,26.4345,-81.9647,5.03,1111122 
SCCF RECON,ioos:station:SCCF:16:1,2009-06-12T23:00:00Z,26.4345,-81.9647,5.17,1111122 
SCCF RECON,ioos:station:SCCF:16:1,2009-06-13T00:00:00Z,26.4345,-81.9647,5.54,1111122 
SCCF RECON,ioos:station:SCCF:16:1,2009-06-13T01:00:00Z,26.4345,-81.9647,6.78,1111122 
SCCF RECON,ioos:station:SCCF:16:1,2009-06-13T02:00:00Z,26.4345,-81.9647,5.92,1111122 
SCCF RECON,ioos:station:SCCF:16:1,2009-06-13T03:00:00Z,26.4345,-81.9647,5.41,1111122 
SCCF RECON,ioos:station:SCCF:16:1,2009-06-13T04:00:00Z,26.4345,-81.9647,5.32,1111122 
SCCF RECON,ioos:station:SCCF:16:1,2009-06-13T05:00:00Z,26.4345,-81.9647,5.31,1111122 
SCCF RECON,ioos:station:SCCF:16:1,2009-06-13T06:00:00Z,26.4345,-81.9647,5.13,1111122 
SCCF RECON,ioos:station:SCCF:16:1,2009-06-13T07:00:00Z,26.4345,-81.9647,4.92,1111122 
SCCF RECON,ioos:station:SCCF:16:1,2009-06-13T08:00:00Z,26.4345,-81.9647,5.28,1111122 
SCCF RECON,ioos:station:SCCF:16:1,2009-06-13T09:00:00Z,26.4345,-81.9647,4.95,1111122 
SCCF RECON,ioos:station:SCCF:16:1,2009-06-13T10:00:00Z,26.4345,-81.9647,5.12,1111122 
SCCF RECON,ioos:station:SCCF:16:1,2009-06-13T11:00:00Z,26.4345,-81.9647,5.09,1111122 
SCCF RECON,ioos:station:SCCF:16:1,2009-06-13T12:00:00Z,26.4345,-81.9647,5.08,1111122 
SCCF RECON,ioos:station:SCCF:16:1,2009-06-13T13:00:00Z,26.4345,-81.9647,5.12,1111122 
SCCF RECON,ioos:station:SCCF:16:1,2009-06-13T14:00:00Z,26.4345,-81.9647,4.17,1111122 
SCCF RECON,ioos:station:SCCF:16:1,2009-06-13T15:00:00Z,26.4345,-81.9647,4.23,1111122 
SCCF RECON,ioos:station:SCCF:16:1,2009-06-13T16:00:00Z,26.4345,-81.9647,4.11,1111122 
SCCF RECON,ioos:station:SCCF:16:1,2009-06-13T17:00:00Z,26.4345,-81.9647,4.03,1111122 
SCCF RECON,ioos:station:SCCF:16:1,2009-06-13T18:00:00Z,26.4345,-81.9647,4.05,1111122 
SCCF RECON,ioos:station:SCCF:16:1,2009-06-13T19:00:00Z,26.4345,-81.9647,4.26,1111122 
SCCF RECON,ioos:station:SCCF:16:1,2009-06-13T20:00:00Z,26.4345,-81.9647,5.02,1111122 
SCCF RECON,ioos:station:SCCF:16:1,2009-06-13T21:00:00Z,26.4345,-81.9647,4.86,1111122 
SCCF RECON,ioos:station:SCCF:16:1,2009-06-13T22:00:00Z,26.4345,-81.9647,4.97,1111122 
SCCF RECON,ioos:station:SCCF:16:1,2009-06-13T23:00:00Z,26.4345,-81.9647,5.19,1111122 
SCCF RECON,ioos:station:SCCF:16:1,2009-06-14T00:00:00Z,26.4345,-81.9647,4.37,1111122 
SCCF RECON,ioos:station:SCCF:16:1,2009-06-14T01:00:00Z,26.4345,-81.9647,4.54,1111122 
SCCF RECON,ioos:station:SCCF:16:1,2009-06-14T02:00:00Z,26.4345,-81.9647,6.07,1111122 
SCCF RECON,ioos:station:SCCF:16:1,2009-06-14T03:00:00Z,26.4345,-81.9647,5.62,1111122 
SCCF RECON,ioos:station:SCCF:16:1,2009-06-14T04:00:00Z,26.4345,-81.9647,6.24,1111122 
SCCF RECON,ioos:station:SCCF:16:1,2009-06-14T05:00:00Z,26.4345,-81.9647,5.18,1111122 
SCCF RECON,ioos:station:SCCF:16:1,2009-06-14T06:00:00Z,26.4345,-81.9647,5.17,1111122 
SCCF RECON,ioos:station:SCCF:16:1,2009-06-14T07:00:00Z,26.4345,-81.9647,5.09,1111122 
SCCF RECON,ioos:station:SCCF:16:1,2009-06-14T08:00:00Z,26.4345,-81.9647,4.64,1111122 
SCCF RECON,ioos:station:SCCF:16:1,2009-06-14T09:00:00Z,26.4345,-81.9647,4.76,1111122 
SCCF RECON,ioos:station:SCCF:16:1,2009-06-14T10:00:00Z,26.4345,-81.9647,4.93,1111122 
SCCF RECON,ioos:station:SCCF:16:1,2009-06-14T11:00:00Z,26.4345,-81.9647,4.87,1111122 
SCCF RECON,ioos:station:SCCF:16:1,2009-06-14T12:00:00Z,26.4345,-81.9647,4.72,1111122 
SCCF RECON,ioos:station:SCCF:16:1,2009-06-14T13:00:00Z,26.4345,-81.9647,5.01,1111122 
SCCF RECON,ioos:station:SCCF:16:1,2009-06-14T14:00:00Z,26.4345,-81.9647,5.48,1111122 
SCCF RECON,ioos:station:SCCF:16:1,2009-06-14T15:00:00Z,26.4345,-81.9647,5.28,1111122 
SCCF RECON,ioos:station:SCCF:16:1,2009-06-14T16:00:00Z,26.4345,-81.9647,4.94,1111122 
SCCF RECON,ioos:station:SCCF:16:1,2009-06-14T17:00:00Z,26.4345,-81.9647,4.83,1111122 
SCCF RECON,ioos:station:SCCF:16:1,2009-06-14T18:00:00Z,26.4345,-81.9647,4.51,1111122 
SCCF RECON,ioos:station:SCCF:16:1,2009-06-14T19:00:00Z,26.4345,-81.9647,4.75,1111122 
SCCF RECON,ioos:station:SCCF:16:1,2009-06-14T20:00:00Z,26.4345,-81.9647,4.75,1111122 
SCCF RECON,ioos:station:SCCF:16:1,2009-06-14T21:00:00Z,26.4345,-81.9647,4.63,1111122 
SCCF RECON,ioos:station:SCCF:16:1,2009-06-14T22:00:00Z,26.4345,-81.9647,4.77,1111122 
SCCF RECON,ioos:station:SCCF:16:1,2009-06-14T23:00:00Z,26.4345,-81.9647,4.85,1111122 
SCCF RECON,ioos:station:SCCF:16:1,2009-06-15T00:00:00Z,26.4345,-81.9647,4.68,1111122 
SCCF RECON,ioos:station:SCCF:16:1,2009-06-15T01:00:00Z,26.4345,-81.9647,4.48,1111122 
SCCF RECON,ioos:station:SCCF:16:1,2009-06-15T02:00:00Z,26.4345,-81.9647,4.36,1111122 
SCCF RECON,ioos:station:SCCF:16:1,2009-06-15T03:00:00Z,26.4345,-81.9647,4.59,1111122 
SCCF RECON,ioos:station:SCCF:16:1,2009-06-15T04:00:00Z,26.4345,-81.9647,4.83,1111122 
SCCF RECON,ioos:station:SCCF:16:1,2009-06-15T05:00:00Z,26.4345,-81.9647,4.93,1111122 
SCCF RECON,ioos:station:SCCF:16:1,2009-06-15T06:00:00Z,26.4345,-81.9647,5.06,1111122 
SCCF RECON,ioos:station:SCCF:16:1,2009-06-15T07:00:00Z,26.4345,-81.9647,4.66,1111122 
SCCF RECON,ioos:station:SCCF:16:1,2009-06-15T08:00:00Z,26.4345,-81.9647,4.89,1111122 
SCCF RECON,ioos:station:SCCF:16:1,2009-06-15T09:00:00Z,26.4345,-81.9647,4.87,1111122 
SCCF RECON,ioos:station:SCCF:16:1,2009-06-15T10:00:00Z,26.4345,-81.9647,4.99,1111122 
SCCF RECON,ioos:station:SCCF:16:1,2009-06-15T11:00:00Z,26.4345,-81.9647,5.07,1111122 
SCCF RECON,ioos:station:SCCF:16:1,2009-06-15T12:00:00Z,26.4345,-81.9647,8.92,1111122 
SCCF RECON,ioos:station:SCCF:16:1,2009-06-15T13:00:00Z,26.4345,-81.9647,5.15,1111122 
SCCF RECON,ioos:station:SCCF:16:1,2009-06-15T14:00:00Z,26.4345,-81.9647,5.51,1111122 
SCCF RECON,ioos:station:SCCF:16:1,2009-06-15T15:00:00Z,26.4345,-81.9647,4.73,1111122 
SCCF RECON,ioos:station:SCCF:16:1,2009-06-15T16:00:00Z,26.4345,-81.9647,5.1,1111122 
SCCF RECON,ioos:station:SCCF:16:1,2009-06-15T17:00:00Z,26.4345,-81.9647,5.35,1111122 
SCCF RECON,ioos:station:SCCF:16:1,2009-06-15T18:00:00Z,26.4345,-81.9647,4.72,1111122 
SCCF RECON,ioos:station:SCCF:16:1,2009-06-15T19:00:00Z,26.4345,-81.9647,4.87,1111122 
SCCF RECON,ioos:station:SCCF:16:1,2009-06-15T20:00:00Z,26.4345,-81.9647,4.98,1111122 
SCCF RECON,ioos:station:SCCF:16:1,2009-06-15T21:00:00Z,26.4345,-81.9647,4.82,1111122 
SCCF RECON,ioos:station:SCCF:16:1,2009-06-15T22:00:00Z,26.4345,-81.9647,4.63,1111122 
SCCF RECON,ioos:station:SCCF:16:1,2009-06-15T23:00:00Z,26.4345,-81.9647,4.69,1111122 
SCCF RECON,ioos:station:SCCF:16:1,2009-06-16T00:00:00Z,26.4345,-81.9647,10.59,1111122 
SCCF RECON,ioos:station:SCCF:16:1,2009-06-16T01:00:00Z,26.4345,-81.9647,5.38,1111122 
SCCF RECON,ioos:station:SCCF:16:1,2009-06-16T02:00:00Z,26.4345,-81.9647,4.68,1111122 
SCCF RECON,ioos:station:SCCF:16:1,2009-06-16T03:00:00Z,26.4345,-81.9647,4.67,1111122 
SCCF RECON,ioos:station:SCCF:16:1,2009-06-16T04:00:00Z,26.4345,-81.9647,4.78,1111122 
SCCF RECON,ioos:station:SCCF:16:1,2009-06-16T05:00:00Z,26.4345,-81.9647,4.64,1111122 
SCCF RECON,ioos:station:SCCF:16:1,2009-06-16T06:00:00Z,26.4345,-81.9647,4.57,1111122 
SCCF RECON,ioos:station:SCCF:16:1,2009-06-16T07:00:00Z,26.4345,-81.9647,4.67,1111122 
SCCF RECON,ioos:station:SCCF:16:1,2009-06-16T08:00:00Z,26.4345,-81.9647,4.55,1111122 
SCCF RECON,ioos:station:SCCF:16:1,2009-06-16T09:00:00Z,26.4345,-81.9647,4.63,1111122 
SCCF RECON,ioos:station:SCCF:16:1,2009-06-16T10:00:00Z,26.4345,-81.9647,4.68,1111122 
SCCF RECON,ioos:station:SCCF:16:1,2009-06-16T11:00:00Z,26.4345,-81.9647,4.84,1111122 
SCCF RECON,ioos:station:SCCF:16:1,2009-06-16T12:00:00Z,26.4345,-81.9647,4.96,1111122 
SCCF RECON,ioos:station:SCCF:16:1,2009-06-16T13:00:00Z,26.4345,-81.9647,5.05,1111122 
SCCF RECON,ioos:station:SCCF:16:1,2009-06-16T14:00:00Z,26.4345,-81.9647,5.11,1111122 
SCCF RECON,ioos:station:SCCF:16:1,2009-06-16T15:00:00Z,26.4345,-81.9647,5.43,1111122 
SCCF RECON,ioos:station:SCCF:16:1,2009-06-16T16:00:00Z,26.4345,-81.9647,6.07,1111122 
SCCF RECON,ioos:station:SCCF:16:1,2009-06-16T17:00:00Z,26.4345,-81.9647,5.47,1111122 
SCCF RECON,ioos:station:SCCF:16:1,2009-06-16T18:00:00Z,26.4345,-81.9647,5.46,1111122 
SCCF RECON,ioos:station:SCCF:16:1,2009-06-16T19:00:00Z,26.4345,-81.9647,5.59,1111122 
SCCF RECON,ioos:station:SCCF:16:1,2009-06-16T20:00:00Z,26.4345,-81.9647,5.81,1111122 
SCCF RECON,ioos:station:SCCF:16:1,2009-06-16T21:00:00Z,26.4345,-81.9647,5.34,1111122 
SCCF RECON,ioos:station:SCCF:16:1,2009-06-16T22:00:00Z,26.4345,-81.9647,5.75,1111122 
SCCF RECON,ioos:station:SCCF:16:1,2009-06-16T23:00:00Z,26.4345,-81.9647,4.78,1111122 
SCCF RECON,ioos:station:SCCF:16:1,2009-06-17T00:00:00Z,26.4345,-81.9647,5.02,1111122 
SCCF RECON,ioos:station:SCCF:16:1,2009-06-17T01:00:00Z,26.4345,-81.9647,5.05,1111122 
SCCF RECON,ioos:station:SCCF:16:1,2009-06-17T02:00:00Z,26.4345,-81.9647,5.03,1111122 
SCCF RECON,ioos:station:SCCF:16:1,2009-06-17T03:00:00Z,26.4345,-81.9647,5.0,1111122 
SCCF RECON,ioos:station:SCCF:16:1,2009-06-17T04:00:00Z,26.4345,-81.9647,4.97,1111122 
SCCF RECON,ioos:station:SCCF:16:1,2009-06-17T05:00:00Z,26.4345,-81.9647,5.03,1111122 
SCCF RECON,ioos:station:SCCF:16:1,2009-06-17T06:00:00Z,26.4345,-81.9647,4.78,1111122 
SCCF RECON,ioos:station:SCCF:16:1,2009-06-17T07:00:00Z,26.4345,-81.9647,4.56,1111122 
SCCF RECON,ioos:station:SCCF:16:1,2009-06-17T08:00:00Z,26.4345,-81.9647,4.63,1111122 